Location: Follega
(52.8850°N, 5.7362°E)
Time: 03:54:33
(UTC+00:00)

Cosmos 2297 Rocket - Pass Details

Date: 07 October 2020
Orbit: 838 x 845 km, 71.0° (Epoch: 26 October)

Event Time Altitude Azimuth Distance (km) Brightness Sun altitude
Rises 19:33:24 0° 327° (NNW) 3,417 6.2 -23.7°
Reaches altitude 10° 19:36:23 10° 341° (NNW) 2,479 5.2 -24.1°
Maximum altitude 19:40:54 24° 34° (NE) 1,710 3.7 -24.7°
Enters shadow 19:41:24 23° 42° (NE) 1,721 3.6 -24.8°
